HISPASAT 30W-6 (43228 NORAD) Tracking and Keplerian Element Data

This shows tracking and keplerian element data for the satellite.

Feedback or suggestion? Click here.




ElementValue
Catalog43228
NameHISPASAT 30W-6
Epoch Orbit275
Epoch Day322.9223279
Epoch Year2018
RAAN45.0531
Inclination0.0474
Eccentricity0.0002782
Argument of Perigee207.5867
Mean Anonmoly107.3644
Mean Motion1.00273392
Decay Rate-2.06E-06
L11 43228U 18023A 18322.92232790 -.00000206 00000-0 00000+0 0 9991
L22 43228 0.0474 45.0531 0002782 207.5867 107.3644 1.00273392 2754

Live tracking and technical data element details for HISPASAT 30W-6 (NORAD 43228). HISPASAT 30W-6 can be tracked NOW for your location showing map with azimuth and elevation plus other details from your city location.

Track the satellite on the map from your city or location and see movement details for azimuth, elevation, latitude, longitude, range, height, and movement on the map or in text.







IsCatalogInMostPopularTable: catalog: 43228, numindb: 190
Update: records affected: 1



GetName: 43228 HISPASAT 30W-6

Hit Count: updated at: Mon, 19 Nov 2018 15:21:08 GMT